DELTA 1 DEB, 7014

Orbit data source: Space-Track

DELTA 1 DEB, 7014 is space debris in SSO originally from a launch on Tue, 06 Nov 1973 UTC launched from the Air Force Western Test Range (AFWTR). Debris objects in space refer to the collection of defunct objects orbiting the Earth. Examples of debris include non-operational satellites, rocket bodies, and fragments generated from explosions, collisions, or faulty payload assembly.

Loading next visibility...
Identifier
7014, 1973-086E
Orbit
SSO
Country
Flag of USUS
Related business
Manufacturer
Unknown
Mission
Spacecraft
Bus & Motor
Unknown
Mass
Unknown
Launch date (UTC)
1973-11-06 (52 years ago)
Launch vehicle
Unknown
Launch site
Air Force Western Test Range (AFWTR)
Object type
Payload
Rocket body
Debris
Shape & HBR
Unknown shape, 0.2 m
Radar Cross Section
Medium (>0.1 m² and <1 m²)

Expand to show TLE details & history
Last TLE update: 8 hours ago

TLE from 8 hours ago
0 DELTA 1 DEB
1  7014U 73086E   25295.17090458  .00000170  00000-0  34193-3 0  9994
2  7014 101.7280 329.3059 0403775  88.1113 276.6183 13.23189603504785
Epoch: 2025-10-22T04:06Z
TLE epoch observation values (Epoch: 2025-10-22T04:06:06.155Z)
Latitude
-0.00003°
Longitude
-123.06809°
Altitude
1,152.316 km
Speed
7.288 km/s
True Right ascension
21h 57m 13s
True Declination
0° 00' 00"
Sunlit
Object was in daylight at epoch
Visualization orbit readout
Latitude
Unknown
Longitude
Unknown
Altitude
Unknown
Speed
Unknown
Apparent Right ascension
Unknown
Apparent Declination
Unknown
Sunlit
N/A
Visualization observer readout
Local Sidereal Time
07:35:14
Azimuth
Unknown
Elevation
Unknown
Doppler factor
Unknown
Orbital elements
Apogee altitude
1,474.781 km
Perigee altitude
865.23 km
Semi-major axis
7,548.142 km
Eccentricity
0.04038
Inclination
101.728°
RAAN
329.3059°
Arg. of periapsis
88.1113°
True anomaly
272.00034°
Mean anomaly
276.6183°
Eccentric anomaly
274.31139°
Mean motion
3.30966 °/min
Orbital period
108.77 mins
BSTAR
0.00034193
Loading maneuver chart data...
Computing Atmospheric mass density...
Loading historical data...
Loading historical data...
Loading historical data...
Loading historical data...
Loading historical data...
Loading historical data...
Loading historical data...

Documentation

Showing up to 5 results
|